This is the latest recevied weather packets stored in our database for station/object WC4PEM-6. If no packets are shown the sender has not sent any weather packets the latest 10 day(s).
| Time | Temp. | Humidity | Pressure | Rain* | Wind** | Luminosity | Snow |
|---|---|---|---|---|---|---|---|
| 1777828811 | 22.78° C | 71% | 1017.2 hPa | 0 mm | - | - | - |
| 1777828511 | 22.78° C | 70% | 1017.4 hPa | 0 mm | - | - | - |
| 1777828211 | 22.78° C | 69% | 1017.6 hPa | 0 mm | - | - | - |
| 1777827911 | 23.33° C | 70% | 1017.5 hPa | 0 mm | - | - | - |
| 1777827611 | 23.33° C | 71% | 1017.4 hPa | 0 mm | - | - | - |
| 1777827311 | 22.78° C | 72% | 1017.4 hPa | 0 mm | - | - | - |
| 1777827011 | 22.78° C | 72% | 1017.5 hPa | 0 mm | - | - | - |
| 1777826711 | 22.22° C | 74% | 1017.6 hPa | 0 mm | - | - | - |
| 1777826411 | 22.22° C | 72% | 1017.7 hPa | 0 mm | - | - | - |
| 1777826111 | 22.22° C | 74% | 1017.7 hPa | 0 mm | - | - | - |
| 1777825811 | 21.67° C | 76% | 1017.8 hPa | 0 mm | - | - | - |
| 1777825511 | 21.67° C | 75% | 1017.9 hPa | 0 mm | - | - | - |
| 1777825211 | 21.67° C | 76% | 1017.9 hPa | 0 mm | - | - | - |
| 1777825141 | 21.11° C | 76% | 1017.9 hPa | 0 mm | - | - | - |
| 1777824911 | 21.11° C | 76% | 1017.9 hPa | 0 mm | - | - | - |
| 1777824611 | 21.11° C | 77% | 1017.9 hPa | 0 mm | - | - | - |
| 1777824311 | 21.11° C | 76% | 1017.8 hPa | 0 mm | - | - | - |
| 1777824011 | 21.11° C | 77% | 1017.8 hPa | 0 mm | - | - | - |
| 1777823711 | 21.11° C | 77% | 1017.7 hPa | 0 mm | - | - | - |
| 1777823411 | 21.11° C | 77% | 1017.8 hPa | 0 mm | - | - | - |
| 1777823111 | 21.11° C | 78% | 1017.8 hPa | 0.25 mm | - | - | - |
| 1777822811 | 21.11° C | 78% | 1017.9 hPa | 0.25 mm | - | - | - |
| 1777822511 | 20.56° C | 80% | 1017.7 hPa | 0.25 mm | - | - | - |
| 1777822211 | 20.56° C | 80% | 1017.8 hPa | 0.25 mm | - | - | - |
| 1777821911 | 20° C | 80% | 1017.8 hPa | 0.25 mm | - | - | - |
* Rain latest hour (hover to see other rain measurements)
** Current wind speed in m/s (hover to see current wind gust speed)